Location: Avenches
(46.8809°N, 7.0410°E)
Time: 07:56:47
(UTC+00:00)

SL-8 Rocket - Pass Details

Date: 30 March 2020
Orbit: 957 x 991 km, 82.9° (Epoch: 02 June)

Event Time Altitude Azimuth Distance (km) Brightness Sun altitude
Rises 20:28:17 0° 355° (N) 3,697 7.6 -24.3°
Reaches altitude 10° 20:30:57 10° 2° (N) 2,749 6.8 -24.7°
Maximum altitude 20:36:58 45° 74° (ENE) 1,329 4.4 -25.5°
Enters shadow 20:37:03 45° 76° (ENE) 1,330 4.4 -25.5°
